Buffalo, NY

4:17 AM EDT on May 25, 2017 (GMT -0400)
Buffalo Niagara International

Weather History for KBUF - September, 2012

Change the Weather History Date:

Tuesday, September 4, 2012

  Actual Average Record
Temperature  
Mean Temperature 75 °F 66 °F  
Max Temperature 83 °F 75 °F 94 °F (1953)
Min Temperature 67 °F 57 °F 44 °F (1946)
Degree Days  
Heating Degree Days 0 2  
Month to date heating degree days 0 7  
Since 1 July heating degree days 1 34  
Cooling Degree Days 10 3  
Month to date cooling degree days 42 13  
Year to date cooling degree days 834 500  
Growing Degree Days 24 (Base 50)    
Moisture  
Dew Point 67 °F    
Average Humidity 76    
Maximum Humidity 93    
Minimum Humidity 58    
Precipitation  
Precipitation 1.32 in 0.12 in 1.32 in (2012)
Month to date precipitation 1.32 0.47  
Year to date precipitation 18.06 25.63  
Snow  
Snow 0.00 in 0.00 in 0.00 in ()
Month to date snowfall 0.0 0.0  
Since 1 July snowfall 0.0 0.0  
Since 1 September snowfall 0.0 0.0  
Snow Depth 0.00 in    
Sea Level Pressure  
Sea Level Pressure 29.85 in    
Wind  
Wind Speed 7 mph (WNW)    
Max Wind Speed 25 mph    
Max Gust Speed 33 mph    
Visibility 8 miles    
Events Rain , Thunderstorm    
T = Trace of Precipitation, MM = Missing Value Source: NWS Daily Summary

Daily Weather History Graph

Daily Weather History Graph

Search for Another Location

Airport or City:

Trip Planner

Search our weather history database for the weather conditions in past years. The results will help you decide how hot, cold, wet, or windy it might be!

Date:

Astronomy

Sep. 04, 2012 Rise Set
Actual Time 6:43 AM EDT 7:43 PM EDT
Civil Twilight 6:14 AM EDT 8:12 PM EDT
Nautical Twilight 5:39 AM EDT 8:46 PM EDT
Astronomical Twilight 5:03 AM EDT 9:22 PM EDT
Moon 9:27 PM EDT (9/4) 10:56 AM EDT (9/4)
Length of Visible Light 13h 58m
Length of Day
13h 00m
Waning Gibbous, 84% of the Moon is Illuminated
Sep 4
Waning Gibbous
Sep 8
Last Quarter
Sep 15
New
Sep 22
First Quarter
Sep 29
Full

Hourly Weather History & Observations

Time (EDT) Temp. Heat Index Dew Point Humidity Pressure Visibility Wind Dir Wind Speed Gust Speed Precip Events Conditions
12:54 AM 73.9 °F - 66.0 °F 76% 29.94 in 10.0 mi South 5.8 mph - N/A   Partly Cloudy
1:54 AM 73.9 °F - 66.0 °F 76% 29.93 in 10.0 mi SSE 3.5 mph - N/A   Partly Cloudy
2:54 AM 73.9 °F - 66.9 °F 79% 29.93 in 10.0 mi SSE 4.6 mph - N/A   Mostly Cloudy
3:54 AM 73.9 °F - 66.9 °F 79% 29.91 in 10.0 mi South 5.8 mph - N/A   Mostly Cloudy
4:54 AM 73.9 °F - 66.9 °F 79% 29.90 in 10.0 mi SSW 6.9 mph - N/A   Scattered Clouds
5:54 AM 73.9 °F - 66.9 °F 79% 29.91 in 10.0 mi South 8.1 mph - N/A   Mostly Cloudy
6:54 AM 73.9 °F - 66.9 °F 79% 29.91 in 10.0 mi South 8.1 mph - N/A   Mostly Cloudy
7:54 AM 75.0 °F - 68.0 °F 79% 29.90 in 10.0 mi South 5.8 mph - N/A   Scattered Clouds
8:54 AM 78.1 °F - 66.9 °F 68% 29.90 in 10.0 mi SSW 11.5 mph - N/A   Mostly Cloudy
9:54 AM 81.0 °F 83.3 °F 66.9 °F 62% 29.89 in 10.0 mi SSW 11.5 mph - N/A   Mostly Cloudy
10:54 AM 82.0 °F 84.1 °F 66.0 °F 58% 29.88 in 10.0 mi WSW 10.4 mph - N/A   Mostly Cloudy
11:54 AM 80.1 °F 82.7 °F 68.0 °F 67% 29.87 in 10.0 mi WSW 10.4 mph - N/A   Overcast
12:54 PM 80.1 °F 82.7 °F 68.0 °F 67% 29.85 in 10.0 mi Variable 6.9 mph - N/A   Overcast
1:54 PM 81.0 °F 83.3 °F 66.9 °F 62% 29.82 in 10.0 mi NW 10.4 mph - N/A   Overcast
2:12 PM 78.8 °F - 68.0 °F 69% 29.83 in 10.0 mi NNW 9.2 mph - 0.00 in Rain , Thunderstorm Light Thunderstorms and Rain
2:36 PM 75.2 °F - 69.8 °F 83% 29.83 in 1.0 mi NNW 5.8 mph - 0.04 in Rain , Thunderstorm Heavy Thunderstorms and Rain
2:54 PM 73.9 °F - 70.0 °F 87% 29.81 in 1.5 mi Calm Calm - 0.25 in Rain , Thunderstorm Heavy Thunderstorms and Rain
3:30 PM 73.4 °F - 69.8 °F 88% 29.81 in 3.0 mi Calm Calm - 0.32 in Rain Rain
3:54 PM 73.0 °F - 70.0 °F 90% 29.78 in 5.0 mi WNW 3.5 mph - 0.33 in Rain Light Rain
3:59 PM 73.4 °F - 69.8 °F 88% 29.79 in 3.0 mi Variable 4.6 mph - 0.01 in Rain Heavy Rain
4:05 PM 73.4 °F - 69.8 °F 88% 29.80 in 1.0 mi WNW 8.1 mph - 0.05 in Rain Heavy Rain
4:33 PM 71.6 °F - 69.8 °F 94% 29.80 in 3.0 mi WNW 10.4 mph - 0.65 in Rain Light Rain
4:54 PM 72.0 °F - 70.0 °F 93% 29.79 in 4.0 mi NNW 10.4 mph - 0.71 in Rain Rain
5:54 PM 72.0 °F - 70.0 °F 93% 29.80 in 7.0 mi NNW 18.4 mph 24.2 mph 0.02 in   Overcast
6:10 PM 66.2 °F - 62.6 °F 88% 29.81 in 10.0 mi North 17.3 mph 27.6 mph 0.00 in   Overcast
6:54 PM 66.9 °F - 64.0 °F 90% 29.80 in 10.0 mi North 5.8 mph - 0.01 in Rain Light Rain
7:24 PM 66.2 °F - 64.4 °F 94% 29.81 in 5.0 mi NE 5.8 mph - 0.00 in Rain Light Rain
7:49 PM 68.0 °F - 66.2 °F 94% 29.81 in 10.0 mi East 5.8 mph - 0.00 in Rain Light Rain
7:54 PM 68.0 °F - 66.0 °F 93% 29.80 in 10.0 mi East 6.9 mph - 0.00 in Rain Light Rain
8:54 PM 68.0 °F - 66.0 °F 93% 29.82 in 10.0 mi NNE 3.5 mph - 0.00 in   Mostly Cloudy
9:50 PM 68.0 °F - 66.2 °F 94% 29.84 in 10.0 mi NNW 6.9 mph - N/A   Overcast
9:54 PM 68.0 °F - 66.0 °F 93% 29.83 in 10.0 mi NNW 5.8 mph - N/A   Overcast
10:54 PM 68.0 °F - 64.9 °F 90% 29.83 in 10.0 mi NNW 6.9 mph - N/A   Overcast
11:13 PM 68.0 °F - 64.4 °F 88% 29.85 in 10.0 mi NNW 6.9 mph - N/A   Overcast
11:54 PM 68.0 °F - 64.9 °F 90% 29.84 in 10.0 mi NNW 4.6 mph - N/A   Overcast